Location: Ebersheim
(48.3033°N, 7.4991°E)
Time: 15:37:30
(UTC+00:00)

Cosmos 2298 Rocket - Pass Details

Date: 27 February 2020
Orbit: 776 x 784 km, 74.0° (Epoch: 27 March)

Event Time Altitude Azimuth Distance (km) Brightness Sun altitude
Rises 19:02:30 0° 338° (NNW) 3,286 7.7 -19.4°
Reaches altitude 10° 19:04:56 10° 342° (NNW) 2,353 6.9 -19.8°
Maximum altitude 19:10:15 66° 64° (ENE) 859 4.0 -20.7°
Enters shadow 19:12:03 41° 131° (SE) 1,132 4.4 -21.0°
